Time,TemperatureF,DewpointF,PressureIn,WindDirection,WindDirectionDegrees,WindSpeedMPH,WindSpeedGustMPH,Humidity,HourlyPrecipIn,Conditions,Clouds,dailyrainin,SoftwareType,DateUTC
2013-07-12 00:01:00,81.0,-99.9,29.99,North,-999,-999.0,-999.0,-999,-99.99,,,-99.99,,2013-07-12 04:01:00,
2013-07-12 00:11:00,-999.0,-99.9,29.99,SW,219,5.0,6.0,-999,-99.99,,,-99.99,,2013-07-12 04:11:00,
2013-07-12 00:22:00,-999.0,-99.9,29.99,WSW,241,4.0,5.0,-999,-99.99,,,-99.99,,2013-07-12 04:22:00,
2013-07-12 00:32:00,-999.0,-99.9,29.99,WSW,258,3.0,4.0,-999,-99.99,,,-99.99,,2013-07-12 04:32:00,
2013-07-12 01:02:00,81.0,-99.9,29.98,North,-999,-999.0,-999.0,-999,-99.99,,,-99.99,,2013-07-12 05:02:00,
2013-07-12 01:12:00,-999.0,-99.9,29.99,SW,215,5.0,6.0,-999,-99.99,,,-99.99,,2013-07-12 05:12:00,
2013-07-12 01:22:00,-999.0,-99.9,29.98,SW,216,5.0,7.0,-999,-99.99,,,-99.99,,2013-07-12 05:22:00,
2013-07-12 01:32:00,-999.0,-99.9,29.98,SW,220,5.0,7.0,-999,-99.99,,,-99.99,,2013-07-12 05:32:00,
2013-07-12 01:43:00,81.0,-99.9,29.98,North,-999,-999.0,-999.0,-999,-99.99,,,-99.99,,2013-07-12 05:43:00,
2013-07-12 01:53:00,-999.0,-99.9,29.98,SSW,199,5.0,6.0,-999,-99.99,,,-99.99,,2013-07-12 05:53:00,
2013-07-12 02:02:00,81.0,-99.9,29.97,North,-999,-999.0,-999.0,-999,-99.99,,,-99.99,,2013-07-12 06:02:00,
2013-07-12 02:11:00,-999.0,-99.9,29.97,SSW,213,5.0,6.0,-999,-99.99,,,-99.99,,2013-07-12 06:11:00,
2013-07-12 02:33:00,-999.0,-99.9,29.97,SSW,211,6.0,7.0,-999,-99.99,,,-99.99,,2013-07-12 06:33:00,
2013-07-12 02:42:00,-999.0,-99.9,29.97,SW,218,4.0,6.0,-999,-99.99,,,-99.99,,2013-07-12 06:42:00,
2013-07-12 02:52:00,80.0,-99.9,29.96,North,-999,-999.0,-999.0,-999,-99.99,,,-99.99,,2013-07-12 06:52:00,
2013-07-12 03:02:00,-999.0,-99.9,29.96,SW,223,8.0,10.0,-999,-99.99,,,-99.99,,2013-07-12 07:02:00,
2013-07-12 03:12:00,-999.0,-99.9,29.96,SW,226,6.0,11.0,-999,-99.99,,,-99.99,,2013-07-12 07:12:00,
2013-07-12 03:22:00,-999.0,-99.9,29.95,SW,228,5.0,7.0,-999,-99.99,,,-99.99,,2013-07-12 07:22:00,
2013-07-12 03:33:00,80.0,-99.9,29.95,North,-999,-999.0,-999.0,-999,-99.99,,,-99.99,,2013-07-12 07:33:00,
2013-07-12 03:43:00,-999.0,-99.9,29.95,WSW,249,4.0,6.0,-999,-99.99,,,-99.99,,2013-07-12 07:43:00,
2013-07-12 03:52:00,-999.0,-99.9,29.95,WSW,253,3.0,4.0,-999,-99.99,,,-99.99,,2013-07-12 07:52:00,
2013-07-12 04:11:00,-999.0,-99.9,29.94,WSW,256,3.0,5.0,-999,-99.99,,,-99.99,,2013-07-12 08:11:00,
2013-07-12 04:22:00,-999.0,-99.9,29.94,WSW,258,2.0,4.0,-999,-99.99,,,-99.99,,2013-07-12 08:22:00,
2013-07-12 04:32:00,-999.0,-99.9,29.94,West,278,3.0,4.0,-999,-99.99,,,-99.99,,2013-07-12 08:32:00,
2013-07-12 04:42:00,-999.0,-99.9,29.94,West,259,3.0,4.0,-999,-99.99,,,-99.99,,2013-07-12 08:42:00,
2013-07-12 04:53:00,-999.0,-99.9,29.94,West,263,3.0,4.0,-999,-99.99,,,-99.99,,2013-07-12 08:53:00,
2013-07-12 05:02:00,-999.0,-99.9,29.94,WSW,251,3.0,4.0,-999,-99.99,,,-99.99,,2013-07-12 09:02:00,
2013-07-12 05:13:00,-999.0,-99.9,29.94,WSW,257,3.0,4.0,-999,-99.99,,,-99.99,,2013-07-12 09:13:00,
2013-07-12 05:33:00,-999.0,-99.9,29.94,SW,232,3.0,4.0,-999,-99.99,,,-99.99,,2013-07-12 09:33:00,
2013-07-12 05:43:00,-999.0,-99.9,29.94,SW,220,2.0,3.0,-999,-99.99,,,-99.99,,2013-07-12 09:43:00,
2013-07-12 05:52:00,-999.0,-99.9,29.94,SW,236,2.0,3.0,-999,-99.99,,,-99.99,,2013-07-12 09:52:00,
2013-07-12 06:11:00,-999.0,-99.9,29.94,SW,227,2.0,2.0,-999,-99.99,,,-99.99,,2013-07-12 10:11:00,
2013-07-12 06:22:00,-999.0,-99.9,29.94,West,259,1.0,1.0,-999,-99.99,,,-99.99,,2013-07-12 10:22:00,
2013-07-12 06:43:00,80.0,-99.9,29.94,North,-999,-999.0,-999.0,-999,-99.99,,,-99.99,,2013-07-12 10:43:00,
2013-07-12 06:52:00,-999.0,-99.9,29.95,NW,323,2.0,3.0,-999,-99.99,,,-99.99,,2013-07-12 10:52:00,
2013-07-12 07:02:00,-999.0,-99.9,29.95,NW,326,2.0,3.0,-999,-99.99,,,-99.99,,2013-07-12 11:02:00,
2013-07-12 07:32:00,-999.0,-99.9,29.95,WNW,287,2.0,2.0,-999,-99.99,,,-99.99,,2013-07-12 11:32:00,
2013-07-12 07:43:00,80.0,-99.9,29.95,North,-999,-999.0,-999.0,-999,-99.99,,,-99.99,,2013-07-12 11:43:00,
2013-07-12 08:11:00,-999.0,-99.9,29.96,SW,222,4.0,5.0,-999,-99.99,,,-99.99,,2013-07-12 12:11:00,
2013-07-12 08:22:00,-999.0,-99.9,29.96,SW,228,2.0,4.0,-999,-99.99,,,-99.99,,2013-07-12 12:22:00,
2013-07-12 08:43:00,80.0,-99.9,29.97,North,-999,-999.0,-999.0,-999,-99.99,,,-99.99,,2013-07-12 12:43:00,
2013-07-12 08:53:00,-999.0,-99.9,29.97,NNW,344,4.0,7.0,-999,-99.99,,,-99.99,,2013-07-12 12:53:00,
2013-07-12 09:01:00,81.0,-99.9,29.97,North,-999,-999.0,-999.0,-999,-99.99,,,-99.99,,2013-07-12 13:01:00,
2013-07-12 09:12:00,-999.0,-99.9,29.97,SE,143,8.0,9.0,-999,-99.99,,,-99.99,,2013-07-12 13:12:00,
2013-07-12 09:32:00,-999.0,-99.9,29.98,SSW,205,9.0,10.0,-999,-99.99,,,-99.99,,2013-07-12 13:32:00,
2013-07-12 09:43:00,-999.0,-99.9,29.98,South,190,5.0,9.0,-999,-99.99,,,-99.99,,2013-07-12 13:43:00,
2013-07-12 10:02:00,78.0,-99.9,29.99,North,-999,-999.0,-999.0,-999,-99.99,,,-99.99,,2013-07-12 14:02:00,
2013-07-12 10:12:00,-999.0,-99.9,29.98,WNW,297,9.0,15.0,-999,-99.99,,,-99.99,,2013-07-12 14:12:00,
2013-07-12 10:22:00,-999.0,-99.9,29.99,WSW,256,3.0,8.0,-999,-99.99,,,-99.99,,2013-07-12 14:22:00,
2013-07-12 10:32:00,-999.0,-99.9,29.98,WNW,283,2.0,2.0,-999,-99.99,,,-99.99,,2013-07-12 14:32:00,
2013-07-12 10:44:00,-999.0,-99.9,29.98,WNW,299,1.0,2.0,-999,-99.99,,,-99.99,,2013-07-12 14:44:00,
2013-07-12 10:53:00,79.0,-99.9,29.99,North,-999,-999.0,-999.0,-999,-99.99,,,-99.99,,2013-07-12 14:53:00,
2013-07-12 11:11:00,-999.0,-99.9,29.99,SSE,164,3.0,3.0,-999,-99.99,,,-99.99,,2013-07-12 15:11:00,
2013-07-12 11:22:00,-999.0,-99.9,29.99,ENE,78,2.0,4.0,-999,-99.99,,,-99.99,,2013-07-12 15:22:00,
2013-07-12 11:33:00,-999.0,-99.9,29.99,SE,140,2.0,4.0,-999,-99.99,,,-99.99,,2013-07-12 15:33:00,
2013-07-12 12:02:00,81.0,-99.9,29.99,North,-999,-999.0,-999.0,-999,-99.99,,,-99.99,,2013-07-12 16:02:00,
2013-07-12 12:11:00,-999.0,-99.9,29.99,South,176,10.0,12.0,-999,-99.99,,,-99.99,,2013-07-12 16:11:00,
2013-07-12 12:32:00,-999.0,-99.9,29.99,SSE,166,10.0,11.0,-999,-99.99,,,-99.99,,2013-07-12 16:32:00,
2013-07-12 12:43:00,-999.0,-99.9,29.98,SSE,162,9.0,10.0,-999,-99.99,,,-99.99,,2013-07-12 16:43:00,
2013-07-12 13:07:00,81.0,-99.9,29.98,North,-999,-999.0,-999.0,-999,-99.99,,,-99.99,,2013-07-12 17:07:00,
2013-07-12 13:24:00,-999.0,-99.9,29.99,South,182,13.0,16.0,-999,-99.99,,,-99.99,,2013-07-12 17:24:00,
2013-07-12 13:47:00,-999.0,-99.9,29.98,SSW,201,11.0,13.0,-999,-99.99,,,-99.99,,2013-07-12 17:47:00,
2013-07-12 13:57:00,-999.0,-99.9,29.98,SW,226,8.0,12.0,-999,-99.99,,,-99.99,,2013-07-12 17:57:00,
2013-07-12 14:08:00,-999.0,-99.9,29.98,SW,226,8.0,12.0,-999,-99.99,,,-99.99,,2013-07-12 18:08:00,
2013-07-12 14:15:00,-999.0,-99.9,29.97,WSW,238,8.0,11.0,-999,-99.99,,,-99.99,,2013-07-12 18:15:00,
2013-07-12 14:52:00,84.0,-99.9,29.96,North,-999,-999.0,-999.0,-999,-99.99,,,-99.99,,2013-07-12 18:52:00,
2013-07-12 15:05:00,84.0,-99.9,29.95,North,-999,-999.0,-999.0,-999,-99.99,,,-99.99,,2013-07-12 19:05:00,
2013-07-12 15:25:00,-999.0,-99.9,29.95,West,272,6.0,12.0,-999,-99.99,,,-99.99,,2013-07-12 19:25:00,
2013-07-12 15:48:00,-999.0,-99.9,29.95,West,265,8.0,13.0,-999,-99.99,,,-99.99,,2013-07-12 19:48:00,
2013-07-12 16:15:00,-999.0,-99.9,29.94,WSW,253,8.0,11.0,-999,-99.99,,,-99.99,,2013-07-12 20:15:00,
2013-07-12 16:24:00,-999.0,-99.9,29.94,West,263,9.0,11.0,-999,-99.99,,,-99.99,,2013-07-12 20:24:00,
2013-07-12 16:35:00,-999.0,-99.9,29.94,WSW,257,9.0,12.0,-999,-99.99,,,-99.99,,2013-07-12 20:35:00,
2013-07-12 16:47:00,-999.0,-99.9,29.94,West,263,5.0,8.0,-999,-99.99,,,-99.99,,2013-07-12 20:47:00,
2013-07-12 17:04:00,85.0,-99.9,29.94,North,-999,-999.0,-999.0,-999,-99.99,,,-99.99,,2013-07-12 21:04:00,
2013-07-12 17:17:00,-999.0,-99.9,29.94,ENE,57,3.0,7.0,-999,-99.99,,,-99.99,,2013-07-12 21:17:00,
2013-07-12 17:36:00,-999.0,-99.9,29.93,East,90,4.0,6.0,-999,-99.99,,,-99.99,,2013-07-12 21:36:00,
2013-07-12 17:49:00,-999.0,-99.9,29.93,SSE,164,2.0,4.0,-999,-99.99,,,-99.99,,2013-07-12 21:49:00,
2013-07-12 17:59:00,-999.0,-99.9,29.93,ESE,108,2.0,6.0,-999,-99.99,,,-99.99,,2013-07-12 21:59:00,
2013-07-12 18:04:00,85.0,-99.9,29.93,North,-999,-999.0,-999.0,-999,-99.99,,,-99.99,,2013-07-12 22:04:00,
2013-07-12 18:35:00,-999.0,-99.9,29.92,SW,235,10.0,14.0,-999,-99.99,,,-99.99,,2013-07-12 22:35:00,
2013-07-12 18:47:00,-999.0,-99.9,29.93,NW,323,7.0,10.0,-999,-99.99,,,-99.99,,2013-07-12 22:47:00,
2013-07-12 18:56:00,-999.0,-99.9,29.93,NNE,27,6.0,9.0,-999,-99.99,,,-99.99,,2013-07-12 22:56:00,
2013-07-12 19:06:00,-999.0,-99.9,29.93,NE,35,5.0,9.0,-999,-99.99,,,-99.99,,2013-07-12 23:06:00,
2013-07-12 19:27:00,-999.0,-99.9,29.93,NE,55,9.0,12.0,-999,-99.99,,,-99.99,,2013-07-12 23:27:00,
2013-07-12 19:45:00,-999.0,-99.9,29.94,ENE,77,9.0,14.0,-999,-99.99,,,-99.99,,2013-07-12 23:45:00,
2013-07-12 19:58:00,79.0,-99.9,29.95,North,-999,-999.0,-999.0,-999,-99.99,,,-99.99,,2013-07-12 23:58:00,
2013-07-12 20:08:00,-999.0,-99.9,29.95,East,86,5.0,12.0,-999,-99.99,,,-99.99,,2013-07-13 00:08:00,
2013-07-12 20:20:00,-999.0,-99.9,29.95,East,82,5.0,6.0,-999,-99.99,,,-99.99,,2013-07-13 00:20:00,
2013-07-12 20:27:00,-999.0,-99.9,29.95,East,87,6.0,8.0,-999,-99.99,,,-99.99,,2013-07-13 00:27:00,
2013-07-12 20:56:00,81.0,-99.9,29.95,North,-999,-999.0,-999.0,-999,-99.99,,,-99.99,,2013-07-13 00:56:00,
2013-07-12 21:05:00,80.0,-99.9,29.96,North,-999,-999.0,-999.0,-999,-99.99,,,-99.99,,2013-07-13 01:05:00,
2013-07-12 21:14:00,-999.0,-99.9,29.96,SSW,195,6.0,8.0,-999,-99.99,,,-99.99,,2013-07-13 01:14:00,
2013-07-12 21:58:00,78.0,-99.9,29.96,North,-999,-999.0,-999.0,-999,-99.99,,,-99.99,,2013-07-13 01:58:00,
2013-07-12 22:15:00,-999.0,-99.9,29.96,ESE,110,4.0,9.0,-999,-99.99,,,-99.99,,2013-07-13 02:15:00,
2013-07-12 22:48:00,80.0,-99.9,29.96,North,-999,-999.0,-999.0,-999,-99.99,,,-99.99,,2013-07-13 02:48:00,
2013-07-12 23:06:00,-999.0,-99.9,29.97,SE,132,8.0,11.0,-999,-99.99,,,-99.99,,2013-07-13 03:06:00,
2013-07-12 23:28:00,-999.0,-99.9,29.97,SSE,163,11.0,14.0,-999,-99.99,,,-99.99,,2013-07-13 03:28:00,
2013-07-12 23:47:00,-999.0,-99.9,29.97,SSE,159,10.0,11.0,-999,-99.99,,,-99.99,,2013-07-13 03:47:00,
2013-07-12 23:58:00,-999.0,-99.9,29.98,SSE,160,11.0,13.0,-999,-99.99,,,-99.99,,2013-07-13 03:58:00,